Regional Weather Roundup
Issued by NWS Sterling, VA

Home | Current Version | Previous Version | Text Only | Print | Product List | Glossary On
Versions: 1 2 3 4 5 6 7 8 9 10 11 12 13 14 15 16 17 18 19 20 21 22 23 24 25 26 27
000
ASUS41 KLWX 250610
RWRLWX

REGIONAL WEATHER ROUNDUP
NATIONAL WEATHER SERVICE BALTIMORE MD/WASHINGTON DC
200 AM EDT MON SEP 25 2017

Note: "FAIR" indicates few or no clouds below 12,000 feet
with no significant weather and/or obstructions to visibility.
 TC=TEMPERATURE CELSIUS

 * =Non NWS site. Station does not report precipitation (e.g. rain,
    snow, etc.), thunder, or fog.

DCZ001-MDZ009-015-VAZ040>042-051-053>054-250700-
WASHINGTON METRO

CITY           SKY/WX    TMP DP  RH WIND       PRES   REMARKS
WASHINGTON NAT PTCLDY    73  69  87 N5        30.03F
DULLES         PTCLDY    68  67  96 NW3       30.04F
ANDREWS AFB    CLEAR     67  64  90 CALM      30.03F
FT BELVOIR     CLEAR     65  64  96 CALM      30.03S
QUANTICO       CLEAR     70  68  93 NW7       30.04S
COLLEGE PARK*  CLEAR     66  65  97 CALM      30.03S
LEESBURG*      CLEAR     66  66 100 CALM      30.06S
MANASSAS*      CLEAR     64  64 100 CALM      30.05R
GAITHERSBURG*  CLEAR     65  64  97 CALM      30.06F

$$

MDZ006>007-011-014-250700-
BALTIMORE METRO

CITY           SKY/WX    TMP DP  RH WIND       PRES   REMARKS
BWI AIRPORT    PTCLDY    67  66  97 W3        30.03S
MD SCIENCE CTR   N/A     77  68  73 MISG      30.03F
MARTIN STATE   PTCLDY    70  70 100 CALM      30.04F
ANNAPOLIS      CLEAR     74  73  97 CALM      30.02F
FORT MEADE*    CLEAR     63  63 100 CALM      30.06S

$$

MDZ012-015-019>023-250700-
MARYLAND EASTERN SHORE

CITY           SKY/WX    TMP DP  RH WIND       PRES   REMARKS
OCEAN CITY     CLEAR     64  64 100 CALM      30.02S
SALISBURY      CLEAR     64  64 100 CALM      30.02S
CAMBRIDGE*     CLEAR     64  64 100 CALM      30.02S
EASTON*        CLEAR     67  65  91 CALM      30.06F

$$

MDZ017>025-250700-
SOUTHERN MARYLAND

CITY           SKY/WX    TMP DP  RH WIND       PRES   REMARKS
PATUXENT RIVER CLEAR     67  67 100 CALM      30.02S
ST INIGOES     CLEAR     65  64  97 CALM      30.01S
LEONARDTOWN*     N/A     64  64 100 CALM      30.04S

$$

MDZ003>005-250700-
NORTH CENTRAL MARYLAND

CITY           SKY/WX    TMP DP  RH WIND       PRES   REMARKS
FREDERICK*     FOG       64  64 100 CALM      30.08S VSB 1/2
HAGERSTOWN APT CLEAR     72  66  81 CALM      30.06F
WESTMINSTER*   CLEAR     70  66  88 CALM      30.07S

$$

MDZ501>502-250700-
WESTERN MARYLAND

CITY           SKY/WX    TMP DP  RH WIND       PRES   REMARKS
OAKLAND*       CLEAR     64  59  82 E5        30.16S
CUMBERLAND*    CLEAR     70  64  83 N5        30.12S

$$

VAZ025>031-250700-
SHENANDOAH VALLEY

CITY           SKY/WX    TMP DP  RH WIND       PRES   REMARKS
WINCHESTER*    CLEAR     61  61 100 CALM      30.07S FOG
FRONT ROYAL*   CLEAR     63  63 100 CALM      30.07S
LURAY*         CLOUDY    63  63 100 CALM      30.09R
NEW MARKET*    PTCLDY    60  58  92 CALM      30.09R
STAUNTON*      PTCLDY    59  57  95 CALM      30.12S
WAYNESBORO*    CLEAR     63  63  99 CALM      30.12R

$$

WVZ021-048>050-054>055-250700-
EASTERN WEST VIRGINIA PANHANDLE

CITY           SKY/WX    TMP DP  RH WIND       PRES   REMARKS
MARTINSBURG    CLEAR     64  62  93 CALM      30.06S FOG
PETERSBURG*    PTCLDY    63  63  98 CALM      30.11S FOG

$$

VAZ036>039-050-250700-
CENTRAL FOOTHILLS

CITY           SKY/WX    TMP DP  RH WIND       PRES   REMARKS
CHARLOTTESVILL CLEAR     67  64  90 W3        30.06S
CULPEPER*      CLEAR     68  66  93 CALM      30.05F
ORANGE*        CLEAR     63  61  94 CALM      30.05S
GORDONSVILLE*  CLEAR     63  63 100 CALM      30.05S
WARRENTON*     CLEAR     61  58  91 CALM      30.04S FOG

$$

VAZ055>057-250700-
NORTH AND CENTRAL PIEDMONT

CITY           SKY/WX    TMP DP  RH WIND       PRES   REMARKS
FREDERICKSBRG* CLEAR     66  66 100 CALM      30.03S
STAFFORD*      CLEAR     63  63 100 CALM      30.07S FOG

$$

NCZ024-NYZ072-PAZ021-071-VAZ022-071-250700-
OTHER REGIONAL OBSERVATIONS

CITY           SKY/WX    TMP DP  RH WIND       PRES   REMARKS
NEW YORK CITY  CLEAR     76  65  68 CALM      30.05F
PHILADELPHIA   PTCLDY    72  67  84 S5        30.02F
PITTSBURGH     CLEAR     69  64  84 CALM      30.09F
ROANOKE        CLOUDY    67  62  84 CALM      30.10F
RICHMOND       PTCLDY    67  62  84 N5        30.01F
RALEIGH        CLOUDY    66  60  81 CALM      30.00F

$$

ANZ530>537-250700-
MARINE OBSERVATIONS

STATION/POSITION TIME  TEMP    WIND        PRES
                       AIR SEA DIR/SP/G
                 (UTC) (F)     (DEG/KT/KT) (MB)
THOMAS PT LIGHT  0600   76 77  140/  2/  2   N/A
BALT KEY BRIDGE  0524   76     290/  3/  3 1016.8
COVE POINT       0524   74     360/  2/  2 1017.4
LEWISETTA        0524   76 79   70/  4/  5 1016.4
SOLOMONS ISLAND  0524   72 77  330/  3/  4 1016.3
PINEY POINT      0530           80/  3/  4   N/A

$$





USA.gov is the U.S. government's official web portal to all federal, state and local government web resources and services.